When you browse on this site, cookies collect data to enhance your experience and personalize the content and advertising you see.
Visit our Privacy Policy to learn more. By continuing to use the site, you agree to this use of cookies and data.
  • In Hungary
  • List of Countries
  • For 7 days
  • Water Temperature
  • Weather Map
  • News
  • Weather Widgets
  • user-avatar
    Login

    Hourly Weather Nagarkot

    Today, 11 December, Wednesday

    Time Temperature Precipitation Wind Pressure Humidity
    00:00 +11°C° 0 mm 1 mps 666 mmHg 78%
    01:00 +11°C° 0 mm 1 mps 666 mmHg 78%
    02:00 +11°C° 0 mm 1 mps 666 mmHg 78%
    03:00 +11°C° 0 mm 1 mps 666 mmHg 78%
    04:00 +10°C° 0 mm 1 mps 666 mmHg 79%
    05:00 +10°C° 0 mm 1 mps 666 mmHg 79%
    06:00 +10°C° 0 mm 1 mps 666 mmHg 80%
    07:00 +11°C° 0 mm 0 mps 667 mmHg 74%
    08:00 +13°C° 0 mm 0 mps 668 mmHg 67%
    09:00 +14°C° 0 mm 0 mps 669 mmHg 61%
    10:00 +16°C° 0 mm 1 mps 669 mmHg 57%
    11:00 +18°C° 0 mm 1 mps 669 mmHg 53%
    12:00 +18°C° 0 mm 2 mps 668 mmHg 49%
    13:00 +18°C° 0 mm 2 mps 668 mmHg 49%
    14:00 +18°C° 0 mm 2 mps 667 mmHg 50%
    15:00 +18°C° 0 mm 2 mps 667 mmHg 51%
    16:00 +16°C° 0 mm 1 mps 666 mmHg 58%
    17:00 +14°C° 0 mm 1 mps 666 mmHg 65%
    18:00 +11°C° 0 mm 0 mps 665 mmHg 72%
    19:00 +10°C° 0 mm 0 mps 666 mmHg 73%
    20:00 +11°C° 0 mm 1 mps 666 mmHg 73%
    21:00 +11°C° 0 mm 1 mps 667 mmHg 74%
    22:00 +11°C° 0 mm 1 mps 667 mmHg 74%
    23:00 +11°C° 0 mm 1 mps 667 mmHg 73%

    Tomorrow, 12 December, Thursday

    Time Temperature Precipitation Wind Pressure Humidity
    00:00 +11°C° 0 mm 1 mps 667 mmHg 73%
    01:00 +11°C° 0 mm 1 mps 667 mmHg 73%
    02:00 +11°C° 0 mm 1 mps 667 mmHg 73%
    03:00 +11°C° 0 mm 1 mps 666 mmHg 74%
    04:00 +11°C° 0 mm 1 mps 667 mmHg 74%
    05:00 +11°C° 0 mm 1 mps 667 mmHg 74%
    06:00 +10°C° 0 mm 1 mps 667 mmHg 74%
    07:00 +12°C° 0 mm 1 mps 668 mmHg 70%
    08:00 +13°C° 0 mm 1 mps 669 mmHg 65%
    09:00 +14°C° 0 mm 0 mps 670 mmHg 61%
    10:00 +16°C° 0 mm 1 mps 670 mmHg 57%
    11:00 +18°C° 0 mm 1 mps 670 mmHg 54%
    12:00 +17°C° 0 mm 2 mps 670 mmHg 51%
    13:00 +17°C° 0 mm 2 mps 670 mmHg 52%
    14:00 +17°C° 0 mm 2 mps 669 mmHg 53%
    15:00 +17°C° 0 mm 2 mps 669 mmHg 54%
    16:00 +15°C° 0 mm 1 mps 668 mmHg 60%
    17:00 +14°C° 0 mm 1 mps 668 mmHg 66%
    18:00 +12°C° 0 mm 0 mps 668 mmHg 72%
    19:00 +11°C° 0 mm 0 mps 668 mmHg 72%
    20:00 +11°C° 0 mm 0 mps 669 mmHg 73%
    21:00 +12°C° 0 mm 1 mps 669 mmHg 73%
    22:00 +12°C° 0 mm 1 mps 669 mmHg 73%
    23:00 +12°C° 0 mm 1 mps 669 mmHg 72%

    Day after tomorrow, 13 December, Friday

    Time Temperature Precipitation Wind Pressure Humidity
    00:00 +12°C° 0 mm 1 mps 669 mmHg 72%
    01:00 +12°C° 0 mm 1 mps 669 mmHg 71%
    02:00 +12°C° 0 mm 1 mps 669 mmHg 71%
    03:00 +12°C° 0 mm 1 mps 668 mmHg 70%
    04:00 +12°C° 0 mm 1 mps 668 mmHg 71%
    05:00 +11°C° 0 mm 0 mps 668 mmHg 71%
    06:00 +11°C° 0 mm 0 mps 668 mmHg 71%
    07:00 +12°C° 0 mm 0 mps 669 mmHg 69%
    08:00 +13°C° 0 mm 0 mps 670 mmHg 67%
    09:00 +13°C° 0 mm 0 mps 671 mmHg 65%
    10:00 +15°C° 0.2 mm 1 mps 671 mmHg 64%
    11:00 +15°C° 0.2 mm 1 mps 671 mmHg 63%
    12:00 +16°C° 0.2 mm 1 mps 671 mmHg 62%
    13:00 +15°C° 0.5 mm 1 mps 670 mmHg 65%
    14:00 +15°C° 0.5 mm 1 mps 670 mmHg 69%
    15:00 +14°C° 0.5 mm 1 mps 669 mmHg 72%
    16:00 +14°C° 0.2 mm 1 mps 669 mmHg 76%
    17:00 +13°C° 0.2 mm 1 mps 669 mmHg 80%
    18:00 +12°C° 0.2 mm 1 mps 669 mmHg 83%
    19:00 +12°C° 0 mm 1 mps 669 mmHg 83%
    20:00 +12°C° 0 mm 1 mps 670 mmHg 83%
    21:00 +12°C° 0 mm 1 mps 670 mmHg 82%
    22:00 +11°C° 0 mm 1 mps 670 mmHg 83%
    23:00 +11°C° 0 mm 1 mps 670 mmHg 83%

    14 December, Saturday

    Time Temperature Precipitation Wind Pressure Humidity
    00:00 +10°C° 0 mm 1 mps 670 mmHg 83%
    01:00 +10°C° 0 mm 1 mps 670 mmHg 81%
    02:00 +10°C° 0 mm 1 mps 670 mmHg 80%
    03:00 +10°C° 0 mm 1 mps 669 mmHg 79%
    04:00 +10°C° 0 mm 1 mps 669 mmHg 78%
    05:00 +10°C° 0 mm 1 mps 669 mmHg 77%
    06:00 +10°C° 0 mm 1 mps 669 mmHg 76%
    07:00 +12°C° 0 mm 1 mps 670 mmHg 71%
    08:00 +12°C° 0 mm 0 mps 671 mmHg 67%
    09:00 +14°C° 0 mm 0 mps 672 mmHg 63%
    10:00 +16°C° 0 mm 1 mps 672 mmHg 59%
    11:00 +18°C° 0 mm 1 mps 672 mmHg 55%
    12:00 +19°C° 0 mm 2 mps 672 mmHg 51%
    13:00 +19°C° 0.1 mm 2 mps 672 mmHg 52%
    14:00 +19°C° 0.1 mm 2 mps 671 mmHg 53%
    15:00 +18°C° 0.1 mm 2 mps 671 mmHg 54%
    16:00 +16°C° 0.1 mm 2 mps 670 mmHg 63%
    17:00 +14°C° 0.1 mm 1 mps 669 mmHg 72%
    18:00 +12°C° 0.1 mm 1 mps 669 mmHg 81%
    19:00 +12°C° 0 mm 1 mps 669 mmHg 80%
    20:00 +12°C° 0 mm 1 mps 669 mmHg 79%
    21:00 +11°C° 0 mm 1 mps 670 mmHg 78%
    22:00 +11°C° 0 mm 1 mps 670 mmHg 77%
    23:00 +11°C° 0 mm 1 mps 670 mmHg 76%

    15 December, Sunday

    Time Temperature Precipitation Wind Pressure Humidity
    00:00 +11°C° 0 mm 1 mps 669 mmHg 75%
    01:00 +11°C° 0 mm 1 mps 669 mmHg 74%
    02:00 +10°C° 0 mm 1 mps 669 mmHg 72%
    03:00 +10°C° 0 mm 1 mps 669 mmHg 71%
    04:00 +10°C° 0 mm 1 mps 669 mmHg 70%
    05:00 +10°C° 0 mm 1 mps 669 mmHg 69%
    06:00 +10°C° 0 mm 1 mps 669 mmHg 68%
    07:00 +12°C° 0 mm 1 mps 670 mmHg 64%
    08:00 +14°C° 0 mm 1 mps 670 mmHg 59%
    09:00 +14°C° 0 mm 0 mps 671 mmHg 55%
    10:00 +16°C° 0 mm 1 mps 671 mmHg 52%
    11:00 +19°C° 0 mm 1 mps 671 mmHg 49%
    12:00 +20°C° 0 mm 1 mps 671 mmHg 46%
    13:00 +20°C° 0 mm 1 mps 671 mmHg 46%
    14:00 +19°C° 0 mm 2 mps 670 mmHg 47%
    15:00 +19°C° 0 mm 2 mps 669 mmHg 47%
    16:00 +17°C° 0.2 mm 2 mps 669 mmHg 56%
    17:00 +15°C° 0.2 mm 1 mps 669 mmHg 64%
    18:00 +13°C° 0.2 mm 1 mps 668 mmHg 73%
    19:00 +12°C° 0 mm 1 mps 669 mmHg 72%
    20:00 +12°C° 0 mm 1 mps 669 mmHg 72%
    21:00 +12°C° 0 mm 1 mps 670 mmHg 71%
    22:00 +12°C° 0 mm 1 mps 670 mmHg 70%
    23:00 +12°C° 0 mm 1 mps 670 mmHg 69%

    16 December, Monday

    Time Temperature Precipitation Wind Pressure Humidity
    00:00 +12°C° 0 mm 1 mps 670 mmHg 68%
    01:00 +11°C° 0 mm 1 mps 670 mmHg 68%
    02:00 +11°C° 0 mm 1 mps 669 mmHg 68%
    03:00 +11°C° 0 mm 1 mps 669 mmHg 68%
    04:00 +10°C° 0 mm 1 mps 669 mmHg 68%
    05:00 +10°C° 0 mm 1 mps 669 mmHg 67%
    06:00 +10°C° 0 mm 1 mps 669 mmHg 66%
    07:00 +12°C° 0 mm 1 mps 670 mmHg 62%
    08:00 +13°C° 0 mm 0 mps 670 mmHg 57%
    09:00 +15°C° 0 mm 0 mps 671 mmHg 52%
    10:00 +18°C° 0 mm 1 mps 671 mmHg 48%
    11:00 +19°C° 0 mm 1 mps 671 mmHg 44%
    12:00 +20°C° 0 mm 2 mps 671 mmHg 40%
    13:00 +20°C° 0 mm 2 mps 670 mmHg 40%
    14:00 +19°C° 0 mm 2 mps 670 mmHg 41%
    15:00 +19°C° 0 mm 3 mps 669 mmHg 41%
    16:00 +17°C° 0 mm 2 mps 669 mmHg 49%
    17:00 +15°C° 0 mm 1 mps 668 mmHg 58%
    18:00 +13°C° 0 mm 1 mps 668 mmHg 67%
    19:00 +12°C° 0 mm 1 mps 668 mmHg 67%
    20:00 +12°C° 0 mm 1 mps 669 mmHg 67%
    21:00 +11°C° 0 mm 1 mps 669 mmHg 67%
    22:00 +11°C° 0 mm 1 mps 669 mmHg 65%
    23:00 +11°C° 0 mm 1 mps 669 mmHg 64%
    Show more